| time (UTC) | temp F | wind direction | speed MPH | gust MPH | rain 1hr in | rain 24hr in | rain mn in | humidity % | barometer mb |
| 20260903160043 | 73 | 144 | 2.0 | 7.0 | 0.00 | 0.00 | 0.00 | 45 | 1023.9 |
| 20260903155548 | 73 | 113 | 2.0 | 8.0 | 0.00 | 0.00 | 0.00 | 46 | 1023.9 |
| 20260903155056 | 72 | 150 | 3.0 | 8.0 | 0.00 | 0.00 | 0.00 | 47 | 1024.0 |
| 20260903154604 | 72 | 115 | 3.0 | 8.0 | 0.00 | 0.00 | 0.00 | 47 | 1023.9 |
| 20260903154006 | 71 | 142 | 5.0 | 8.0 | 0.00 | 0.00 | 0.00 | 48 | 1024.0 |
| 20260903153517 | 71 | 90 | 4.0 | 8.0 | 0.00 | 0.00 | 0.00 | 48 | 1024.0 |
| 20260903153019 | 70 | 110 | 5.0 | 8.0 | 0.00 | 0.00 | 0.00 | 49 | 1024.0 |
| 20260903152527 | 70 | 116 | 3.0 | 8.0 | 0.00 | 0.00 | 0.00 | 49 | 1024.0 |
| 20260903152035 | 70 | 135 | 4.0 | 8.0 | 0.00 | 0.00 | 0.00 | 50 | 1024.0 |
| 20260903151543 | 69 | 147 | 3.0 | 8.0 | 0.00 | 0.00 | 0.00 | 51 | 1023.9 |
| 20260903151051 | 69 | 107 | 5.0 | 8.0 | 0.00 | 0.00 | 0.00 | 51 | 1024.0 |
| 20260903150542 | 68 | 121 | 5.0 | 8.0 | 0.00 | 0.00 | 0.00 | 52 | 1024.0 |
| 20260903150059 | 68 | 117 | 5.0 | 9.0 | 0.00 | 0.00 | 0.00 | 52 | 1024.0 |
| 20260903145557 | 67 | 126 | 5.0 | 9.0 | 0.00 | 0.00 | 0.00 | 51 | 1023.9 |
| 20260903145002 | 67 | 119 | 4.0 | 7.0 | 0.00 | 0.00 | 0.00 | 54 | 1023.9 |
| 20260903144556 | 67 | 105 | 3.0 | 7.0 | 0.00 | 0.00 | 0.00 | 54 | 1024.0 |
| 20260903144104 | 66 | 88 | 3.0 | 8.0 | 0.00 | 0.00 | 0.00 | 54 | 1024.0 |
| 20260903143556 | 66 | 86 | 3.0 | 8.0 | 0.00 | 0.00 | 0.00 | 54 | 1024.0 |
| 20260903143110 | 65 | 110 | 4.0 | 8.0 | 0.00 | 0.00 | 0.00 | 54 | 1023.9 |
| 20260903142557 | 65 | 86 | 4.0 | 8.0 | 0.00 | 0.00 | 0.00 | 55 | 1023.9 |
| 20260903142049 | 65 | 103 | 3.0 | 8.0 | 0.00 | 0.00 | 0.00 | 56 | 1023.8 |
| 20260903141555 | 64 | 124 | 5.0 | 8.0 | 0.00 | 0.00 | 0.00 | 55 | 1023.8 |
| 20260903141103 | 64 | 135 | 5.0 | 8.0 | 0.00 | 0.00 | 0.00 | 56 | 1023.7 |
| 20260903140507 | 64 | 121 | 4.0 | 8.0 | 0.00 | 0.00 | 0.00 | 56 | 1023.7 |
| 20260903140051 | 63 | 111 | 5.0 | 8.0 | 0.00 | 0.00 | 0.00 | 57 | 1023.7 |
| 20260903135601 | 63 | 121 | 4.0 | 8.0 | 0.00 | 0.00 | 0.00 | 58 | 1023.7 |
| 20260903135053 | 62 | 107 | 5.0 | 8.0 | 0.00 | 0.00 | 0.00 | 59 | 1023.7 |
| 20260903134611 | 62 | 119 | 4.0 | 8.0 | 0.00 | 0.00 | 0.00 | 60 | 1023.7 |
| 20260903134005 | 61 | 105 | 5.0 | 7.0 | 0.00 | 0.00 | 0.00 | 61 | 1023.6 |
| 20260903133600 | 61 | 128 | 4.0 | 7.0 | 0.00 | 0.00 | 0.00 | 61 | 1023.6 |
| 20260903133002 | 60 | 111 | 3.0 | 6.0 | 0.00 | 0.00 | 0.00 | 62 | 1023.6 |
| 20260903132558 | 60 | 122 | 3.0 | 6.0 | 0.00 | 0.00 | 0.00 | 63 | 1023.6 |
| 20260903132048 | 59 | 107 | 4.0 | 6.0 | 0.00 | 0.00 | 0.00 | 64 | 1023.6 |
| 20260903131557 | 59 | 123 | 3.0 | 6.0 | 0.00 | 0.00 | 0.00 | 64 | 1023.6 |
| 20260903131105 | 58 | 117 | 3.0 | 5.0 | 0.00 | 0.00 | 0.00 | 65 | 1023.4 |
| 20260903130507 | 58 | 99 | 4.0 | 7.0 | 0.00 | 0.00 | 0.00 | 65 | 1023.4 |
| 20260903125506 | 58 | 99 | 3.0 | 7.0 | 0.00 | 0.00 | 0.00 | 66 | 1023.4 |
| 20260903125013 | 58 | 88 | 3.0 | 8.0 | 0.00 | 0.00 | 0.00 | 66 | 1023.3 |
| 20260903124519 | 58 | 90 | 4.0 | 8.0 | 0.00 | 0.00 | 0.00 | 66 | 1023.2 |
| 20260903124027 | 58 | 67 | 4.0 | 8.0 | 0.00 | 0.00 | 0.00 | 65 | 1023.2 |
| 20260903123536 | 58 | 92 | 4.0 | 8.0 | 0.00 | 0.00 | 0.00 | 65 | 1023.3 |
| 20260903123043 | 58 | 89 | 4.0 | 9.0 | 0.00 | 0.00 | 0.00 | 65 | 1023.3 |
| 20260903122553 | 58 | 87 | 6.0 | 9.0 | 0.00 | 0.00 | 0.00 | 65 | 1023.1 |
| 20260903122059 | 58 | 107 | 4.0 | 7.0 | 0.00 | 0.00 | 0.00 | 65 | 1023.1 |
| 20260903121502 | 58 | 96 | 3.0 | 7.0 | 0.00 | 0.00 | 0.00 | 65 | 1023.1 |
| 20260903121057 | 58 | 96 | 4.0 | 7.0 | 0.00 | 0.00 | 0.00 | 65 | 1023.1 |
| 20260903120607 | 58 | 108 | 4.0 | 6.0 | 0.00 | 0.00 | 0.00 | 65 | 1023.1 |
| 20260903120056 | 58 | 144 | 5.0 | 8.0 | 0.00 | 0.00 | 0.00 | 64 | 1023.0 |
| 20260903115604 | 58 | 114 | 5.0 | 8.0 | 0.00 | 0.00 | 0.00 | 64 | 1023.0 |
| 20260903115056 | 59 | 123 | 5.0 | 7.0 | 0.00 | 0.00 | 0.00 | 64 | 1023.0 |
| 20260903114605 | 59 | 101 | 3.0 | 6.0 | 0.00 | 0.00 | 0.00 | 63 | 1023.0 |
| 20260903114010 | 59 | 80 | 3.0 | 6.0 | 0.00 | 0.00 | 0.00 | 63 | 1022.9 |
| 20260903113606 | 59 | 105 | 4.0 | 8.0 | 0.00 | 0.00 | 0.00 | 63 | 1022.9 |
| 20260903113006 | 59 | 111 | 5.0 | 8.0 | 0.00 | 0.00 | 0.00 | 63 | 1022.8 |
| 20260903112518 | 59 | 138 | 2.0 | 6.0 | 0.00 | 0.00 | 0.00 | 63 | 1022.9 |
| 20260903112022 | 59 | 107 | 2.0 | 6.0 | 0.00 | 0.00 | 0.00 | 62 | 1022.9 |
| 20260903111530 | 60 | 135 | 3.0 | 6.0 | 0.00 | 0.00 | 0.00 | 62 | 1022.9 |
| 20260903111040 | 60 | 117 | 2.0 | 6.0 | 0.00 | 0.00 | 0.00 | 61 | 1022.9 |
| 20260903110547 | 60 | 115 | 2.0 | 6.0 | 0.00 | 0.00 | 0.00 | 61 | 1022.9 |
| 20260903110051 | 60 | 102 | 3.0 | 5.0 | 0.00 | 0.00 | 0.00 | 61 | 1022.9 |
| 20260903105545 | 60 | 78 | 2.0 | 6.0 | 0.00 | 0.00 | 0.00 | 61 | 1022.8 |
| 20260903105049 | 60 | 80 | 3.0 | 6.0 | 0.00 | 0.00 | 0.00 | 61 | 1022.8 |
| 20260903104605 | 60 | 96 | 3.0 | 6.0 | 0.00 | 0.00 | 0.00 | 60 | 1022.8 |
| 20260903104001 | 60 | 99 | 2.0 | 6.0 | 0.00 | 0.00 | 0.00 | 60 | 1022.8 |
| 20260903103556 | 60 | 98 | 4.0 | 6.0 | 0.00 | 0.00 | 0.00 | 60 | 1022.8 |
| 20260903103104 | 61 | 103 | 3.0 | 6.0 | 0.00 | 0.00 | 0.00 | 59 | 1022.8 |
| 20260903102557 | 61 | 113 | 2.0 | 4.0 | 0.00 | 0.00 | 0.00 | 59 | 1022.8 |
| 20260903102047 | 61 | 117 | 2.0 | 4.0 | 0.00 | 0.00 | 0.00 | 59 | 1022.9 |
| 20260903101556 | 61 | 101 | 3.0 | 4.0 | 0.00 | 0.00 | 0.00 | 59 | 1022.9 |
| 20260903101102 | 61 | 88 | 2.0 | 4.0 | 0.00 | 0.00 | 0.00 | 59 | 1022.9 |
| 20260903100505 | 61 | 101 | 3.0 | 4.0 | 0.00 | 0.00 | 0.00 | 59 | 1022.9 |
| 20260903100042 | 61 | 126 | 2.0 | 6.0 | 0.00 | 0.00 | 0.00 | 59 | 1023.0 |
| 20260903095549 | 61 | 92 | 3.0 | 6.0 | 0.00 | 0.00 | 0.00 | 59 | 1023.0 |
| 20260903095058 | 61 | 90 | 2.0 | 4.0 | 0.00 | 0.00 | 0.00 | 59 | 1022.9 |
| 20260903094502 | 61 | 105 | 2.0 | 4.0 | 0.00 | 0.00 | 0.00 | 58 | 1022.8 |
| 20260903094057 | 62 | 109 | 2.0 | 4.0 | 0.00 | 0.00 | 0.00 | 58 | 1022.9 |
| 20260903093606 | 62 | 107 | 2.0 | 4.0 | 0.00 | 0.00 | 0.00 | 58 | 1022.8 |
| 20260903093103 | 62 | 99 | 1.0 | 4.0 | 0.00 | 0.00 | 0.00 | 58 | 1022.9 |
| 20260903092605 | 62 | 95 | 2.0 | 5.0 | 0.00 | 0.00 | 0.00 | 58 | 1022.9 |
| 20260903092058 | 62 | 105 | 3.0 | 5.0 | 0.00 | 0.00 | 0.00 | 58 | 1022.8 |
| 20260903091500 | 62 | 98 | 3.0 | 6.0 | 0.00 | 0.00 | 0.00 | 58 | 1022.8 |
| 20260903091009 | 62 | 123 | 3.0 | 6.0 | 0.00 | 0.00 | 0.00 | 57 | 1022.8 |
| 20260903090606 | 62 | 128 | 3.0 | 4.0 | 0.00 | 0.00 | 0.00 | 57 | 1022.8 |
| 20260903090008 | 62 | 126 | 2.0 | 4.0 | 0.00 | 0.00 | 0.00 | 57 | 1022.7 |
| 20260903085603 | 62 | 117 | 2.0 | 6.0 | 0.00 | 0.00 | 0.00 | 57 | 1022.7 |
| 20260903085006 | 62 | 121 | 2.0 | 6.0 | 0.00 | 0.00 | 0.00 | 56 | 1022.8 |
| 20260903084604 | 63 | 116 | 3.0 | 6.0 | 0.00 | 0.00 | 0.00 | 56 | 1022.7 |
| 20260903084007 | 62 | 114 | 3.0 | 6.0 | 0.00 | 0.00 | 0.00 | 56 | 1022.7 |
| 20260903083604 | 62 | 98 | 3.0 | 6.0 | 0.00 | 0.00 | 0.00 | 57 | 1022.7 |
| 20260903083054 | 62 | 97 | 2.0 | 4.0 | 0.00 | 0.00 | 0.00 | 57 | 1022.7 |
| 20260903082601 | 62 | 61 | 0.0 | 2.0 | 0.00 | 0.00 | 0.00 | 56 | 1022.7 |
| 20260903082054 | 63 | 61 | 0.0 | 2.0 | 0.00 | 0.00 | 0.00 | 56 | 1022.7 |
| 20260903081602 | 63 | 61 | 0.0 | 3.0 | 0.00 | 0.00 | 0.00 | 56 | 1022.8 |
| 20260903081054 | 63 | 73 | 2.0 | 4.0 | 0.00 | 0.00 | 0.00 | 56 | 1022.8 |
| 20260903080545 | 63 | 32 | 2.0 | 4.0 | 0.00 | 0.00 | 0.00 | 55 | 1022.8 |
| 20260903080053 | 63 | 101 | 2.0 | 4.0 | 0.00 | 0.00 | 0.00 | 55 | 1022.7 |
| 20260903075601 | 63 | 123 | 2.0 | 6.0 | 0.00 | 0.00 | 0.00 | 55 | 1022.7 |
| 20260903075003 | 63 | 115 | 3.0 | 6.0 | 0.00 | 0.00 | 0.00 | 55 | 1022.8 |
| 20260903074559 | 63 | 134 | 3.0 | 6.0 | 0.00 | 0.00 | 0.00 | 55 | 1022.8 |
| 20260903074004 | 64 | 123 | 3.0 | 6.0 | 0.00 | 0.00 | 0.00 | 55 | 1022.7 |
| 20260903073601 | 64 | 131 | 4.0 | 6.0 | 0.00 | 0.00 | 0.00 | 54 | 1022.7 |
| 20260903073003 | 64 | 113 | 3.0 | 4.0 | 0.00 | 0.00 | 0.00 | 54 | 1022.7 |
| 20260903072600 | 64 | 119 | 3.0 | 4.0 | 0.00 | 0.00 | 0.00 | 54 | 1022.7 |
| 20260903072052 | 64 | 96 | 2.0 | 4.0 | 0.00 | 0.00 | 0.00 | 54 | 1022.8 |
| 20260903071603 | 64 | 95 | 2.0 | 4.0 | 0.00 | 0.00 | 0.00 | 53 | 1022.8 |
| 20260903071054 | 64 | 75 | 1.0 | 3.0 | 0.00 | 0.00 | 0.00 | 53 | 1022.7 |
| 20260903070541 | 64 | 5 | 0.0 | 3.0 | 0.00 | 0.00 | 0.00 | 53 | 1022.7 |
| 20260903070050 | 64 | 80 | 1.0 | 3.0 | 0.00 | 0.00 | 0.00 | 53 | 1022.6 |
| 20260903065558 | 65 | 36 | 1.0 | 4.0 | 0.00 | 0.00 | 0.00 | 53 | 1022.5 |
| 20260903065000 | 65 | 67 | 1.0 | 4.0 | 0.00 | 0.00 | 0.00 | 52 | 1022.5 |
| 20260903064556 | 65 | 100 | 2.0 | 4.0 | 0.00 | 0.00 | 0.00 | 52 | 1022.5 |
| 20260903064103 | 65 | 96 | 2.0 | 3.0 | 0.00 | 0.00 | 0.00 | 52 | 1022.5 |
| 20260903063557 | 65 | 360 | 0.0 | 3.0 | 0.00 | 0.00 | 0.00 | 52 | 1022.6 |
| 20260903063109 | 65 | 92 | 0.0 | 5.0 | 0.00 | 0.00 | 0.00 | 52 | 1022.6 |
| 20260903062557 | 65 | 84 | 2.0 | 8.0 | 0.00 | 0.00 | 0.00 | 52 | 1022.5 |
| 20260903062047 | 66 | 102 | 4.0 | 8.0 | 0.00 | 0.00 | 0.00 | 52 | 1022.3 |
| 20260903061601 | 65 | 90 | 3.0 | 8.0 | 0.00 | 0.00 | 0.00 | 52 | 1022.3 |
| 20260903061108 | 66 | 155 | 3.0 | 8.0 | 0.00 | 0.00 | 0.00 | 52 | 1022.4 |
| 20260903060505 | 66 | 96 | 3.0 | 7.0 | 0.00 | 0.00 | 0.00 | 51 | 1022.4 |
| 20260903060103 | 66 | 91 | 4.0 | 7.0 | 0.00 | 0.00 | 0.00 | 51 | 1022.3 |
| 20260903055506 | 66 | 88 | 3.0 | 6.0 | 0.00 | 0.00 | 0.00 | 51 | 1022.5 |
| 20260903055103 | 66 | 104 | 3.0 | 4.0 | 0.00 | 0.00 | 0.00 | 51 | 1022.4 |
| 20260903054553 | 66 | 134 | 2.0 | 6.0 | 0.00 | 0.00 | 0.00 | 50 | 1022.3 |
| 20260903054101 | 67 | 109 | 3.0 | 4.0 | 0.00 | 0.00 | 0.00 | 50 | 1022.5 |
| 20260903053555 | 67 | 110 | 2.0 | 4.0 | 0.00 | 0.00 | 0.00 | 49 | 1022.5 |
| 20260903053102 | 67 | 103 | 2.0 | 6.0 | 0.00 | 0.00 | 0.00 | 49 | 1022.5 |
| 20260903052555 | 67 | 114 | 3.0 | 6.0 | 0.00 | 0.00 | 0.00 | 49 | 1022.5 |
| 20260903052102 | 68 | 113 | 3.0 | 5.0 | 0.00 | 0.00 | 0.00 | 48 | 1022.5 |
| 20260903051507 | 68 | 123 | 1.0 | 2.0 | 0.00 | 0.00 | 0.00 | 47 | 1022.5 |
| 20260903051102 | 69 | 123 | 0.0 | 2.0 | 0.00 | 0.00 | 0.00 | 47 | 1022.6 |
| 20260903050502 | 69 | 84 | 0.0 | 1.0 | 0.00 | 0.00 | 0.00 | 46 | 1022.6 |
| 20260903050100 | 69 | 84 | 0.0 | 2.0 | 0.00 | 0.00 | 0.00 | 46 | 1022.5 |
| 20260903045505 | 69 | 84 | 1.0 | 5.0 | 0.00 | 0.00 | 0.00 | 46 | 1022.5 |
| 20260903045103 | 69 | 76 | 2.0 | 5.0 | 0.00 | 0.00 | 0.00 | 46 | 1022.5 |
| 20260903044554 | 69 | 84 | 2.0 | 5.0 | 0.00 | 0.00 | 0.00 | 46 | 1022.4 |
| 20260903044100 | 70 | 72 | 2.0 | 5.0 | 0.00 | 0.00 | 0.00 | 45 | 1022.4 |
| 20260903043554 | 70 | 81 | 2.0 | 5.0 | 0.00 | 0.00 | 0.00 | 45 | 1022.4 |
| 20260903043101 | 70 | 84 | 2.0 | 4.0 | 0.00 | 0.00 | 0.00 | 44 | 1022.4 |
| 20260903042555 | 71 | 113 | 2.0 | 6.0 | 0.00 | 0.00 | 0.00 | 44 | 1022.3 |
| 20260903042043 | 71 | 88 | 3.0 | 7.0 | 0.00 | 0.00 | 0.00 | 44 | 1022.3 |
| 20260903041551 | 71 | 85 | 3.0 | 5.0 | 0.00 | 0.00 | 0.00 | 44 | 1022.3 |
| 20260903041101 | 71 | 90 | 3.0 | 5.0 | 0.00 | 0.00 | 0.00 | 44 | 1022.3 |
| 20260903040502 | 71 | 74 | 2.0 | 5.0 | 0.00 | 0.00 | 0.00 | 44 | 1022.4 |
| 20260903040103 | 71 | 63 | 2.0 | 5.0 | 0.00 | 0.00 | 0.00 | 44 | 1022.4 |
| 20260903035604 | 71 | 63 | 2.0 | 5.0 | 0.00 | 0.00 | 0.00 | 44 | 1022.3 |
| 20260903035056 | 71 | 76 | 2.0 | 4.0 | 0.00 | 0.00 | 0.00 | 44 | 1022.2 |
| 20260903034604 | 72 | 80 | 2.0 | 5.0 | 0.00 | 0.00 | 0.00 | 44 | 1022.1 |
| 20260903034008 | 72 | 60 | 3.0 | 6.0 | 0.00 | 0.00 | 0.00 | 44 | 1022.1 |
| 20260903033602 | 72 | 51 | 3.0 | 6.0 | 0.00 | 0.00 | 0.00 | 44 | 1022.0 |
| 20260903033005 | 71 | 50 | 3.0 | 6.0 | 0.00 | 0.00 | 0.00 | 44 | 1021.9 |
| 20260903032603 | 71 | 49 | 3.0 | 6.0 | 0.00 | 0.00 | 0.00 | 44 | 1021.9 |
| 20260903032006 | 71 | 63 | 3.0 | 6.0 | 0.00 | 0.00 | 0.00 | 44 | 1021.9 |
| 20260903031602 | 71 | 30 | 2.0 | 4.0 | 0.00 | 0.00 | 0.00 | 43 | 1021.9 |
| 20260903031052 | 72 | 11 | 1.0 | 2.0 | 0.00 | 0.00 | 0.00 | 42 | 1021.8 |
| 20260903030600 | 72 | 351 | 1.0 | 2.0 | 0.00 | 0.00 | 0.00 | 42 | 1021.7 |
| 20260903030053 | 72 | 351 | 1.0 | 2.0 | 0.00 | 0.00 | 0.00 | 41 | 1021.7 |
| 20260903025543 | 73 | 351 | 1.0 | 2.0 | 0.00 | 0.00 | 0.00 | 41 | 1021.7 |
| 20260903025050 | 73 | 351 | 1.0 | 2.0 | 0.00 | 0.00 | 0.00 | 41 | 1021.6 |
| 20260903024559 | 73 | 315 | 1.0 | 2.0 | 0.00 | 0.00 | 0.00 | 41 | 1021.7 |
| 20260903024002 | 74 | 315 | 1.0 | 2.0 | 0.00 | 0.00 | 0.00 | 40 | 1021.6 |
| 20260903023556 | 74 | 315 | 1.0 | 2.0 | 0.00 | 0.00 | 0.00 | 40 | 1021.5 |
| 20260903023135 | 74 | 313 | 0.0 | 2.0 | 0.00 | 0.00 | 0.00 | 40 | 1021.6 |
| 20260903022555 | 74 | 311 | 0.0 | 2.0 | 0.00 | 0.00 | 0.00 | 40 | 1021.5 |
| 20260903022045 | 74 | 311 | 0.0 | 2.0 | 0.00 | 0.00 | 0.00 | 40 | 1021.5 |
| 20260903021554 | 75 | 311 | 1.0 | 2.0 | 0.00 | 0.00 | 0.00 | 39 | 1021.6 |
| 20260903021102 | 75 | 311 | 1.0 | 2.0 | 0.00 | 0.00 | 0.00 | 39 | 1021.6 |
| 20260903020507 | 75 | 311 | 1.0 | 3.0 | 0.00 | 0.00 | 0.00 | 39 | 1021.7 |
| 20260903020107 | 76 | 307 | 1.0 | 3.0 | 0.00 | 0.00 | 0.00 | 38 | 1021.5 |
| 20260903015552 | 76 | 307 | 1.0 | 4.0 | 0.00 | 0.00 | 0.00 | 38 | 1021.5 |
| 20260903015100 | 76 | 301 | 2.0 | 4.0 | 0.00 | 0.00 | 0.00 | 38 | 1021.6 |
| 20260903014553 | 76 | 302 | 2.0 | 5.0 | 0.00 | 0.00 | 0.00 | 38 | 1021.6 |
| 20260903014101 | 77 | 296 | 2.0 | 7.0 | 0.00 | 0.00 | 0.00 | 37 | 1021.7 |
| 20260903013504 | 77 | 298 | 3.0 | 7.0 | 0.00 | 0.00 | 0.00 | 37 | 1021.7 |
| 20260903013014 | 77 | 313 | 4.0 | 7.0 | 0.00 | 0.00 | 0.00 | 37 | 1021.6 |
| 20260903012503 | 78 | 306 | 3.0 | 8.0 | 0.00 | 0.00 | 0.00 | 37 | 1021.7 |
| 20260903012058 | 78 | 315 | 4.0 | 8.0 | 0.00 | 0.00 | 0.00 | 37 | 1021.6 |
| 20260903011502 | 78 | 322 | 4.0 | 8.0 | 0.00 | 0.00 | 0.00 | 37 | 1021.7 |
| 20260903011059 | 79 | 295 | 5.0 | 8.0 | 0.00 | 0.00 | 0.00 | 36 | 1021.7 |
| 20260903010502 | 79 | 322 | 3.0 | 7.0 | 0.00 | 0.00 | 0.00 | 36 | 1021.6 |
| 20260903010100 | 79 | 280 | 3.0 | 7.0 | 0.00 | 0.00 | 0.00 | 35 | 1021.7 |
| 20260903005551 | 80 | 291 | 3.0 | 7.0 | 0.00 | 0.00 | 0.00 | 35 | 1021.7 |
| 20260903005058 | 80 | 288 | 3.0 | 7.0 | 0.00 | 0.00 | 0.00 | 35 | 1021.7 |
| 20260903004551 | 80 | 271 | 1.0 | 6.0 | 0.00 | 0.00 | 0.00 | 35 | 1021.7 |
| 20260903004059 | 80 | 267 | 2.0 | 6.0 | 0.00 | 0.00 | 0.00 | 34 | 1021.8 |
| 20260903003552 | 80 | 263 | 3.0 | 8.0 | 0.00 | 0.00 | 0.00 | 34 | 1021.7 |
| 20260903003049 | 79 | 226 | 4.0 | 12.0 | 0.00 | 0.00 | 0.00 | 34 | 1021.9 |
| 20260903002551 | 79 | 298 | 8.0 | 12.0 | 0.00 | 0.00 | 0.00 | 35 | 1021.8 |
| 20260903002058 | 79 | 329 | 5.0 | 12.0 | 0.00 | 0.00 | 0.00 | 38 | 1021.8 |
| 20260903001503 | 79 | 330 | 4.0 | 12.0 | 0.00 | 0.00 | 0.00 | 36 | 1021.8 |
| 20260903001055 | 79 | 315 | 6.0 | 10.0 | 0.00 | 0.00 | 0.00 | 36 | 1021.8 |
| 20260903000603 | 79 | 350 | 3.0 | 10.0 | 0.00 | 0.00 | 0.00 | 38 | 1021.7 |
| 20260903000055 | 79 | 323 | 6.0 | 13.0 | 0.00 | 0.00 | 0.00 | 37 | 1021.8 |
| 20260902235546 | 79 | 290 | 8.0 | 15.0 | 0.00 | 0.00 | 0.00 | 36 | 1021.7 |
| 20260902235055 | 79 | 281 | 8.0 | 15.0 | 0.00 | 0.00 | 0.00 | 35 | 1021.7 |
| 20260902234605 | 79 | 312 | 8.0 | 12.0 | 0.00 | 0.00 | 0.00 | 35 | 1021.8 |
| 20260902234004 | 79 | 302 | 9.0 | 14.0 | 0.00 | 0.00 | 0.00 | 36 | 1021.8 |
| 20260902233601 | 79 | 300 | 8.0 | 16.0 | 0.00 | 0.00 | 0.00 | 35 | 1021.8 |
| 20260902233013 | 79 | 282 | 8.0 | 16.0 | 0.00 | 0.00 | 0.00 | 35 | 1021.8 |
| 20260902232602 | 79 | 290 | 8.0 | 16.0 | 0.00 | 0.00 | 0.00 | 36 | 1021.8 |
| 20260902232051 | 79 | 297 | 9.0 | 17.0 | 0.00 | 0.00 | 0.00 | 37 | 1021.8 |
| 20260902231604 | 79 | 277 | 11.0 | 20.0 | 0.00 | 0.00 | 0.00 | 38 | 1021.7 |
| 20260902231053 | 79 | 305 | 10.0 | 20.0 | 0.00 | 0.00 | 0.00 | 38 | 1021.7 |
| 20260902230545 | 80 | 267 | 11.0 | 19.0 | 0.00 | 0.00 | 0.00 | 38 | 1021.8 |
| 20260902230052 | 81 | 319 | 12.0 | 19.0 | 0.00 | 0.00 | 0.00 | 36 | 1021.7 |
| 20260902225559 | 82 | 270 | 11.0 | 19.0 | 0.00 | 0.00 | 0.00 | 31 | 1021.7 |
| 20260902225002 | 82 | 238 | 8.0 | 17.0 | 0.00 | 0.00 | 0.00 | 29 | 1021.7 |
| 20260902224556 | 83 | 292 | 9.0 | 17.0 | 0.00 | 0.00 | 0.00 | 29 | 1021.8 |
| 20260902224104 | 83 | 258 | 9.0 | 16.0 | 0.00 | 0.00 | 0.00 | 28 | 1021.7 |
| 20260902223557 | 85 | 306 | 9.0 | 18.0 | 0.00 | 0.00 | 0.00 | 27 | 1021.7 |
| 20260902223109 | 85 | 329 | 11.0 | 18.0 | 0.00 | 0.00 | 0.00 | 27 | 1021.6 |
| 20260902222600 | 85 | 281 | 6.0 | 15.0 | 0.00 | 0.00 | 0.00 | 28 | 1021.6 |
| 20260902222047 | 86 | 290 | 7.0 | 12.0 | 0.00 | 0.00 | 0.00 | 27 | 1021.6 |
| 20260902221558 | 86 | 232 | 5.0 | 10.0 | 0.00 | 0.00 | 0.00 | 27 | 1021.7 |
| 20260902221105 | 86 | 270 | 5.0 | 10.0 | 0.00 | 0.00 | 0.00 | 27 | 1021.7 |
| 20260902220505 | 86 | 329 | 5.0 | 12.0 | 0.00 | 0.00 | 0.00 | 28 | 1021.7 |
| 20260902220050 | 86 | 282 | 7.0 | 12.0 | 0.00 | 0.00 | 0.00 | 28 | 1021.9 |
| 20260902215559 | 86 | 290 | 5.0 | 15.0 | 0.00 | 0.00 | 0.00 | 27 | 1021.9 |
| 20260902215102 | 86 | 275 | 4.0 | 16.0 | 0.00 | 0.00 | 0.00 | 27 | 1022.1 |
| 20260902214554 | 86 | 259 | 4.0 | 16.0 | 0.00 | 0.00 | 0.00 | 27 | 1022.0 |
| 20260902214105 | 86 | 203 | 6.0 | 16.0 | 0.00 | 0.00 | 0.00 | 28 | 1022.0 |
| 20260902213506 | 87 | 223 | 4.0 | 10.0 | 0.00 | 0.00 | 0.00 | 27 | 1022.0 |
| 20260902213101 | 86 | 234 | 3.0 | 14.0 | 0.00 | 0.00 | 0.00 | 28 | 1022.1 |
| 20260902212503 | 85 | 218 | 7.0 | 14.0 | 0.00 | 0.00 | 0.00 | 27 | 1022.1 |
| 20260902212101 | 84 | 160 | 3.0 | 10.0 | 0.00 | 0.00 | 0.00 | 29 | 1022.1 |
| 20260902211503 | 83 | 184 | 6.0 | 15.0 | 0.00 | 0.00 | 0.00 | 29 | 1022.2 |
| 20260902211101 | 83 | 175 | 7.0 | 15.0 | 0.00 | 0.00 | 0.00 | 29 | 1022.3 |
| 20260902210552 | 84 | 187 | 7.0 | 15.0 | 0.00 | 0.00 | 0.00 | 29 | 1022.4 |
| 20260902210100 | 84 | 167 | 9.0 | 15.0 | 0.00 | 0.00 | 0.00 | 29 | 1022.4 |
| 20260902205550 | 84 | 192 | 6.0 | 11.0 | 0.00 | 0.00 | 0.00 | 29 | 1022.4 |
| 20260902205058 | 84 | 228 | 5.0 | 13.0 | 0.00 | 0.00 | 0.00 | 30 | 1022.6 |
| 20260902204503 | 83 | 201 | 7.0 | 13.0 | 0.00 | 0.00 | 0.00 | 30 | 1022.6 |
| 20260902204009 | 84 | 119 | 3.0 | 10.0 | 0.00 | 0.00 | 0.00 | 30 | 1022.7 |
| 20260902203604 | 84 | 163 | 1.0 | 10.0 | 0.00 | 0.00 | 0.00 | 30 | 1022.8 |
| 20260902203008 | 84 | 260 | 1.0 | 15.0 | 0.00 | 0.00 | 0.00 | 30 | 1022.9 |
| 20260902202604 | 84 | 198 | 5.0 | 15.0 | 0.00 | 0.00 | 0.00 | 30 | 1022.9 |
| 20260902202056 | 85 | 200 | 5.0 | 11.0 | 0.00 | 0.00 | 0.00 | 30 | 1023.0 |
| 20260902201605 | 84 | 182 | 3.0 | 6.0 | 0.00 | 0.00 | 0.00 | 30 | 1023.0 |
| 20260902201057 | 83 | 302 | 3.0 | 7.0 | 0.00 | 0.00 | 0.00 | 30 | 1023.1 |
| 20260902200604 | 84 | 302 | 3.0 | 7.0 | 0.00 | 0.00 | 0.00 | 30 | 1023.1 |
| 20260902200055 | 84 | 218 | 1.0 | 9.0 | 0.00 | 0.00 | 0.00 | 29 | 1023.2 |
| 20260902195548 | 85 | 321 | 1.0 | 9.0 | 0.00 | 0.00 | 0.00 | 29 | 1023.3 |
| 20260902195054 | 84 | 213 | 3.0 | 12.0 | 0.00 | 0.00 | 0.00 | 30 | 1023.3 |
| 20260902194600 | 84 | 304 | 6.0 | 12.0 | 0.00 | 0.00 | 0.00 | 30 | 1023.4 |
| 20260902194004 | 84 | 259 | 0.0 | 6.0 | 0.00 | 0.00 | 0.00 | 29 | 1023.5 |
| 20260902193604 | 83 | 288 | 1.0 | 8.0 | 0.00 | 0.00 | 0.00 | 30 | 1023.6 |
| 20260902193005 | 83 | 292 | 4.0 | 14.0 | 0.00 | 0.00 | 0.00 | 30 | 1023.7 |
| 20260902192602 | 83 | 230 | 3.0 | 14.0 | 0.00 | 0.00 | 0.00 | 30 | 1023.7 |
| 20260902192052 | 84 | 310 | 2.0 | 4.0 | 0.00 | 0.00 | 0.00 | 29 | 1023.8 |
| 20260902191610 | 84 | 323 | 1.0 | 9.0 | 0.00 | 0.00 | 0.00 | 28 | 1023.9 |
| 20260902191003 | 85 | 209 | 3.0 | 10.0 | 0.00 | 0.00 | 0.00 | 28 | 1023.9 |
| 20260902190511 | 85 | 311 | 3.0 | 10.0 | 0.00 | 0.00 | 0.00 | 27 | 1024.0 |
| 20260902190105 | 85 | 207 | 5.0 | 11.0 | 0.00 | 0.00 | 0.00 | 29 | 1024.0 |
| 20260902185555 | 84 | 230 | 4.0 | 14.0 | 0.00 | 0.00 | 0.00 | 30 | 1024.1 |
| 20260902185101 | 84 | 210 | 6.0 | 14.0 | 0.00 | 0.00 | 0.00 | 30 | 1024.2 |
| 20260902184557 | 83 | 277 | 2.0 | 8.0 | 0.00 | 0.00 | 0.00 | 31 | 1024.2 |
| 20260902184104 | 83 | 302 | 2.0 | 13.0 | 0.00 | 0.00 | 0.00 | 31 | 1024.3 |
| 20260902183600 | 82 | 236 | 3.0 | 13.0 | 0.00 | 0.00 | 0.00 | 32 | 1024.5 |
| 20260902183045 | 83 | 323 | 5.0 | 8.0 | 0.00 | 0.00 | 0.00 | 29 | 1024.5 |
| 20260902182554 | 83 | 215 | 4.0 | 11.0 | 0.00 | 0.00 | 0.00 | 30 | 1024.6 |
| 20260902182104 | 82 | 286 | 3.0 | 11.0 | 0.00 | 0.00 | 0.00 | 31 | 1024.6 |
| 20260902181504 | 83 | 275 | 2.0 | 7.0 | 0.00 | 0.00 | 0.00 | 31 | 1024.7 |
| 20260902181101 | 82 | 206 | 3.0 | 7.0 | 0.00 | 0.00 | 0.00 | 32 | 1024.8 |
| 20260902180503 | 82 | 287 | 1.0 | 8.0 | 0.00 | 0.00 | 0.00 | 32 | 1024.9 |
| 20260902180018 | 82 | 142 | 3.0 | 8.0 | 0.00 | 0.00 | 0.00 | 30 | 1025.0 |
| 20260902175526 | 82 | 190 | 4.0 | 8.0 | 0.00 | 0.00 | 0.00 | 34 | 1025.0 |
| 20260902175035 | 81 | 237 | 2.0 | 9.0 | 0.00 | 0.00 | 0.00 | 33 | 1025.0 |
| 20260902174552 | 81 | 169 | 2.0 | 9.0 | 0.00 | 0.00 | 0.00 | 33 | 1025.0 |
| 20260902174052 | 81 | 263 | 2.0 | 7.0 | 0.00 | 0.00 | 0.00 | 34 | 1025.1 |
| 20260902173556 | 80 | 192 | 4.0 | 7.0 | 0.00 | 0.00 | 0.00 | 35 | 1025.0 |
| 20260902173103 | 80 | 229 | 2.0 | 6.0 | 0.00 | 0.00 | 0.00 | 35 | 1025.1 |
| 20260902172506 | 79 | 204 | 2.0 | 6.0 | 0.00 | 0.00 | 0.00 | 36 | 1025.1 |
| 20260902172100 | 79 | 252 | 2.0 | 6.0 | 0.00 | 0.00 | 0.00 | 36 | 1025.1 |
| 20260902171504 | 79 | 92 | 2.0 | 7.0 | 0.00 | 0.00 | 0.00 | 37 | 1025.2 |
| 20260902171100 | 78 | 78 | 2.0 | 7.0 | 0.00 | 0.00 | 0.00 | 36 | 1025.1 |
| 20260902170550 | 78 | 153 | 4.0 | 7.0 | 0.00 | 0.00 | 0.00 | 38 | 1025.2 |
| 20260902170059 | 78 | 148 | 2.0 | 5.0 | 0.00 | 0.00 | 0.00 | 38 | 1025.3 |
| 20260902165501 | 77 | 180 | 3.0 | 7.0 | 0.00 | 0.00 | 0.00 | 37 | 1025.4 |
| 20260902165009 | 77 | 154 | 4.0 | 7.0 | 0.00 | 0.00 | 0.00 | 37 | 1025.3 |
| 20260902164517 | 77 | 209 | 1.0 | 6.0 | 0.00 | 0.00 | 0.00 | 38 | 1025.3 |
| 20260902164027 | 76 | 136 | 3.0 | 5.0 | 0.00 | 0.00 | 0.00 | 38 | 1025.4 |
| 20260902163533 | 76 | 207 | 2.0 | 4.0 | 0.00 | 0.00 | 0.00 | 38 | 1025.4 |
| 20260902163041 | 75 | 209 | 2.0 | 4.0 | 0.00 | 0.00 | 0.00 | 40 | 1025.3 |
| 20260902162532 | 75 | 67 | 1.0 | 7.0 | 0.00 | 0.00 | 0.00 | 41 | 1025.3 |
| 20260902162041 | 74 | 179 | 1.0 | 7.0 | 0.00 | 0.00 | 0.00 | 41 | 1025.4 |
| 20260902161548 | 74 | 157 | 3.0 | 7.0 | 0.00 | 0.00 | 0.00 | 41 | 1025.3 |
| 20260902161055 | 74 | 183 | 2.0 | 6.0 | 0.00 | 0.00 | 0.00 | 42 | 1025.3 |
| 20260902160548 | 73 | 138 | 3.0 | 7.0 | 0.00 | 0.00 | 0.00 | 42 | 1025.3 |